Regional Weather Roundup
Issued by NWS

Home | Current Version | Previous Version | Graphics & Text | Print | Product List | Glossary On
Versions: 1 2 3 4 5 6 7 8 9 10 11 12 13 14 15 16 17 18 19 20 21 22 23 24 25 26 27 28 29 30 31 32 33 34 35 36 37 38 39 40 41 42 43 44 45 46 47 48 49 50
000
ASUS45 KPSR 250210
RWRAZ

ARIZONA HOURLY REGIONAL WEATHER ROUNDUP
NATIONAL WEATHER SERVICE PHOENIX AZ
700 PM MST TUE MAY 24 2016

NOTE: FAIR INDICATES FEW OR NO CLOUDS BELOW 12,000 FEET WITH NO
SIGNIFICANT WEATHER AND/OR OBSTRUCTIONS TO VISIBILITY.

AZZ001>003-036-250300-
NORTHWEST ARIZONA

CITY           SKY/WX    TMP DP  RH WIND       PRES   REMARKS
BULLHEAD CITY  PTCLDY    84  21  10 SW13      29.81R
KINGMAN        PTCLDY    71  28  20 S20       29.93R
$$

AZZ004>008-015-016-018-250300-
NORTH CENTRAL ARIZONA

CITY           SKY/WX    TMP DP  RH WIND       PRES   REMARKS
GRAND CANYON   CLEAR     59  13  16 SW17G26   30.04R
WILLIAMS       CLEAR     57  14  18 SW15G32   30.12R
PRESCOTT       CLEAR     65  20  17 S8G17     30.02R
FLAGSTAFF      CLEAR     54  25  32 SW14G25   30.08R
PAYSON         CLEAR     66  21  18 SW13G18   30.07R
PAGE           CLEAR     73  11   9 SW15G25   29.86R
$$

AZZ009>014-017-250300-
NORTHEAST ARIZONA

CITY           SKY/WX    TMP DP  RH WIND       PRES   REMARKS
WINSLOW        CLEAR     69  15  12 SW24G32   29.98R
SAINT JOHNS    CLEAR     68  12  11 SW13      30.03R
WINDOW ROCK    CLEAR     64   8  11 SW20G26   30.06R
SHOW LOW       CLEAR     59  14  17 SW20G26   30.10R
$$

AZZ023-250300-
GREATER PHOENIX AREA

CITY           SKY/WX    TMP DP  RH WIND       PRES   REMARKS
PHOENIX        CLEAR     85  25  11 W18       29.84R
BUCKEYE        CLEAR     81  25  12 W14       29.87S
GLENDALE       CLEAR     84  23  10 SW14      29.86S
LUKE AFB       CLEAR     84  23  10 W12       29.84S
DEER VALLEY    CLEAR     82  21  10 W17       29.86R
SCOTTSDALE     CLEAR     83  26  12 W12G20    29.88R
MESA-GATEWAY   CLEAR     84  30  14 W9        29.86
CHANDLER       CLEAR     86  30  13 W10       29.85R
$$

AZZ027-028-250300-
SOUTHWEST MARICOPA COUNTY AND PINAL COUNTY

CITY           SKY/WX    TMP DP  RH WIND       PRES   REMARKS
CASA GRANDE    CLEAR     84  32  15 NW12      29.87S
GILA BEND      CLEAR     85  24  11 W15       29.84R
$$

AZZ503-504-507>509-250300-
SOUTHEAST ARIZONA

CITY           SKY/WX    TMP DP  RH WIND       PRES   REMARKS
TUCSON         CLEAR     84  20   9 SW13      29.94R
DAVIS-MONTHAN  CLEAR     83  18   8 W13       29.92R
RYAN FIELD     CLEAR     82  30  15 W13       29.93R
NOGALES        CLEAR     77  20  12 W13       30.01R
SIERRA VISTA   CLEAR     74  19  12 SW9       30.06R
DOUGLAS        CLEAR     78  22  12 W17       30.01R
SAFFORD        CLEAR     83  16   8 NW17      29.89R
$$

AZZ020-021-025-026-031-250300-
SOUTHWEST ARIZONA

CITY           SKY/WX    TMP DP  RH WIND       PRES   REMARKS
YUMA           PTCLDY    81  38  21 W10       29.85
$$

CAZ031-033-041-043-047-048-061-250300-
SOUTHERN CALIFORNIA

CITY           SKY/WX    TMP DP  RH WIND       PRES   REMARKS
DOWNTOWN L.A.  PTCLDY    64  51  62 VRB3      30.01R
L.A. AIRPORT   MOCLDY    61  52  72 W18       30.02S
SAN DIEGO      MOCLDY    66  52  60 NW10      30.05S
BURBANK        MOCLDY    63  48  58 S9        30.00R
ONTARIO        PTCLDY    64  49  57 W12G22    30.00R
RIVERSIDE      PTCLDY    66  49  54 W10       29.98S
PALM SPRINGS   PTCLDY    79  39  23 NW15G32   29.85S
EL CENTRO NAS  MOCLDY    76  41  28 W29       29.89R
IMPERIAL       PTCLDY    76  43  30 W24G30    29.85S
BLYTHE         CLEAR     80  35  19 SW21      29.84S
NEEDLES        CLEAR     86  21   9 SW9       29.80S
$$

NVZ020-UTZ003-250300-
SOUTHERN NEVADA-UTAH

CITY           SKY/WX    TMP DP  RH WIND       PRES   REMARKS
LAS VEGAS      PTCLDY    76  27  16 SW12      29.79R
SALT LAKE CITY MOCLDY    62  36  37 CALM      29.89R
$$

NMZ009-TXZ055-250300-
NEW MEXICO-WEST TEXAS

CITY           SKY/WX    TMP DP  RH WIND       PRES   REMARKS
ALBUQUERQUE    PTCLDY    79  10   7 SW15      29.93R
EL PASO        MOCLDY    86   4   4 W14       29.93R
$$


........................KEY........................
SKY/WX - SKY CONDITION/WEATHER
TMP    - TEMPERATURE IN FAHRENHEIT
DP     - DEW POINT IN FAHRENHEIT
RH     - RELATIVE HUMIDITY IN PERCENT
WIND   - DIRECTION AND SPEED IN MILES PER HOUR (MPH)
VRB    - VARIABLE WIND DIRECTION
PRES   - MEAN SEA LEVEL PRESSURE IN INCHES OF MERCURY
         F - FALLING PRESSURE   R - RISING PRESSURE
         S - STEADY PRESSURE
VSB    - VISIBILITY IN MILES
HX     - HEAT INDEX IN FAHRENHEIT
WCI    - WIND CHILL INDEX IN FAHRENHEIT
TC     - TEMPERATURE IN CELSIUS WHICH IS ALSO KNOWN AS
         TEMPERATURE IN CENTIGRADE
AFB    - AIR FORCE BASE
         LUKE AFB IS LUKE AIR FORCE BASE
         DAVIS-MONTHAN IS DAVIS-MONTHAN AIR FORCE BASE
NAS    - NAVAL AIR STATION
         EL CENTRO NAS IS EL CENTRO NAVAL AIR STATION
N/A    - NOT AVAILABLE




USA.gov is the U.S. government's official web portal to all federal, state and local government web resources and services.